SCP
0 0 0 0 0 0 0 0 0 0 0 0 0 0 0 0 0 0 0 0 0 0 0 0 0 0 0 0 0 0 0 0 0 1 0 0 0 0 0 0 0 0 0 1 0 0 0 0 0 0 0 0 0 0
0 0 0 0 0 0 0 0 0 0 0 0 0 0 0 0 0 0 0 0 0 0 0 0 0 0 0 0 0 0 0 1 1 0 0 0 0 0 0 0 0 0 0 0 0 0 0 0 0 0 0 0 0 0
0 0 0 0 0 0 0 0 0 0 0 0 0 0 0 0 0 0 0 0 0 0 0 0 0 0 0 0 0 0 0 0 0 0 0 0 0 0 0 0 0 0 0 0 0 0 0 0 0 0 0 0 0 0
0 0 0 0 0 0 0 0 0 0 0 0 0 0 0 0 0 0 0 0 0 0 0 0 0 0 0 0 0 0 0 0 0 0 0 0 0 0 0 0 0 0 0 0 0 0 0 0 0 0 0 0 0 0
0 0 0 0 0 0 0 0 0 0 0 0 0 0 0 0 0 0 0 0 0 0 0 0 0 0 0 0 0 0 0 0 0 1 1 1 0 0 0 0 0 0 0 0 0 0 0 0 0 0 0 0 0 0
0 0 0 0 0 0 0 0 0 0 0 0 0 0 0 0 0 0 0 0 0 0 0 0 0 0 0 0 0 0 0 0 0 0 0 0 0 0 0 0 0 0 0 0 0 0 0 0 0 0 0 0 0 0
0 0 0 0 0 0 0 0 0 0 0 0 0 0 0 0 0 0 0 0 0 0 0 0 0 0 0 0 0 0 0 0 0 0 0 0 0 0 0 0 0 0 0 0 0 0 0 0 0 0 0 0 0 0
0 0 0 0 0 0 0 0 0 0 0 0 0 0 0 0 0 0 0 0 0 0 0 0 0 0 0 0 0 0 0 0 0 0 0 0 0 0 0 0 0 0 0 0 0 0 0 0 0 0 0 0 0 0
0 0 0 0 0 0 0 0 0 0 0 0 0 0 0 0 0 0 0 0 0 0 0 0 0 0 0 0 0 0 0 0 0 0 0 0 0 0 0 0 0 0 0 0 0 0 0 0 0 0 0 0 0 0
0 0 0 0 0 0 0 0 0 0 0 0 0 0 0 0 0 0 0 0 0 0 0 0 0 0 0 0 0 0 0 0 0 0 0 0 0 0 0 0 0 0 0 0 0 0 0 0 0 0 0 0 0 0
0 0 0 0 0 0 0 0 0 0 0 0 0 0 0 0 0 0 0 0 0 0 0 0 0 0 0 0 0 0 0 0 0 0 0 0 0 0 0 0 0 0 0 0 0 0 0 0 0 0 0 0 0 0
0 0 0 0 0 0 0 0 0 0 0 0 0 0 0 0 0 0 0 0 0 0 0 0 0 0 0 0 0 0 0 0 0 0 0 0 0 0 0 0 0 0 0 0 0 0 0 0 0 0 0 0 0 0
0 0 0 0 0 0 0 0 0 0 0 0 0 0 0 0 0 0 0 0 0 0 0 0 0 0 0 0 0 0 0 0 0 0 0 0 0 0 0 0 0 0 0 0 0 0 0 0 0 0 0 0 0 0
0 0 0 0 0 0 0 0 0 0 0 0 0 0 0 0 0 0 0 0 0 0 0 0 0 0 0 0 0 0 0 0 0 0 0 0 0 0 0 0 0 0 0 0 0 0 0 0 0 0 0 0 0 0
0 0 0 0 0 0 0 0 0 0 0 0 0 0 0 0 0 0 0 0 0 0 0 0 0 0 0 0 0 0 0 0 0 0 0 0 0 0 0 0 0 0 0 0 0 0 0 0 0 0 0 0 0 0
0 0 0 0 0 0 0 0 0 0 0 0 0 0 0 0 0 0 0 0 0 0 0 0 0 0 0 0 0 0 0 0 0 0 0 0 0 0 0 0 0 0 0 0 0 0 0 0 0 0 0 0 0 0
0 0 0 0 0 0 0 0 0 0 0 0 0 0 0 0 0 0 0 0 0 0 0 0 0 0 0 0 0 0 0 0 0 0 0 0 0 0 0 0 0 0 0 0 0 0 0 0 0 0 0 0 0 0
0 0 0 0 0 0 0 0 0 0 0 0 0 0 0 0 0 0 0 0 0 0 0 0 0 0 0 0 0 0 0 0 0 0 0 0 0 0 0 0 0 0 0 0 0 0 0 0 0 0 0 0 0 0
0 0 0 0 0 0 0 0 0 0 0 0 0 0 0 0 0 0 0 0 0 0 0 0 0 0 0 0 0 0 0 0 0 0 0 0 0 0 0 0 0 0 0 0 0 0 0 0 0 0 0 0 0 0
0 0 0 0 0 0 0 0 0 0 0 0 0 0 0 0 0 0 0 0 0 0 0 0 0 0 0 0 0 0 0 0 0 0 0 0 0 0 0 0 0 0 0 0 0 0 0 0 0 0 0 0 0 0
0 0 0 0 0 0 0 0 0 0 0 0 0 0 0 0 0 0 0 0 0 0 0 0 0 0 0 0 0 0 0 0 0 0 0 0 0 0 0 0 0 0 0 0 0 0 0 0 0 0 0 0 0 0
0 0 0 0 0 0 0 0 0 0 0 0 0 0 0 0 0 0 0 0 0 0 0 0 0 0 0 0 0 0 0 0 0 0 0 0 0 0 0 0 0 0 0 0 0 0 0 0 0 0 0 0 0 0
0 0 0 0 0 0 0 0 0 0 0 0 0 0 0 0 0 0 0 0 0 0 0 0 0 0 0 0 0 0 0 0 0 0 0 0 0 0 0 0 0 0 0 0 0 0 0 0 0 0 0 0 0 0
0 0 0 0 0 0 0 0 0 0 0 0 0 0 0 0 0 0 0 0 0 0 0 0 0 0 0 0 0 0 0 0 0 0 0 0 0 0 0 0 0 0 0 0 0 0 0 0 0 0 0 0 0 0
0 0 0 0 0 0 0 0 0 0 0 0 0 0 0 0 0 0 0 0 0 0 0 0 0 0 0 0 0 0 0 0 0 0 0 0 0 0 0 0 0 0 0 0 0 0 0 0 0 0 0 0 0 0
0 0 0 0 0 0 0 0 0 0 0 0 0 0 0 0 0 0 0 0 0 0 0 0 0 0 0 0 0 0 0 0 0 0 0 0 0 0 0 0 0 0 0 0 0 0 0 0 0 0 0 0 0 0
0 0 0 0 0 0 0 0 0 0 0 0 0 0 0 0 0 0 0 0 0 0 0 0 0 0 0 0 0 0 0 0 0 0 0 0 0 0 0 0 0 0 0 0 0 0 0 0 0 0 0 0 0 0
-0 0 0 0 0 0 0 0 0 0 0 0 0 0 0 0 0 0 0 0 0 0 0 0 0 0 0 0 0 0 0 0 0 0 0 0 0 0 0 0 0 0 0 0 0 0 0 0 0 0 0 0 0 0
0 0 0 0 0 0 0 0 0 0 0 0 0 0 0 0 0 0 0 0 0 0 0 0 0 0 0 0 0 0 0 0 0 0 0 0 0 0 0 0 0 0 0 0 0 0 0 0 0 0 0 0 0 0
0 0 0 0 0 0 -0 0 0 0 0 0 0 0 0 0 0 0 0 0 0 0 0 0 0 0 0 0 0 0 0 0 0 0 0 0 0 0 0 0 0 0 0 0 0 0 0 0 0 0 0 0 0 0
0 0 0 0 0 0 0 -0 -0 -0 -0 0 0 0 0 0 0 0 0 0 0 0 0 0 0 0 0 0 0 0 0 0 0 0 0 0 0 0 0 0 0 0 0 0 0 0 0 0 0 0 0 0 0 0
-0 -0 -0 -0 -0 -0 -0 -0 -0 -0 -0 -0 0 0 0 0 0 0 0 0 0 0 0 0 0 0 0 0 0 0 0 0 0 0 0 0 0 0 0 0 0 0 0 0 0 0 0 0 0 0 0 0 0 0
0 0 0 -0 -0 0 0 0 0 0 0 0 0 0 0 -0 -0 0 0 0 0 0 0 0 0 0 0 0 0 0 0 0 0 0 0 0 0 0 0 0 0 0 0 0 0 0 0 0 0 0 0 0 0 0
Wind_Speed_500mb
76 71 65 60 54 48 42 36 30 26 21 18 15 11 8 7 8 10 9 5 9 8 8 10 5 4 3 2 2 7 5 0 2 5 5 6 5 6 4 2 5 8 10 6 5 4 9 3 7 5 4 10 7 18
77 72 66 61 55 48 42 36 31 26 22 18 16 12 9 7 7 8 4 6 12 14 8 16 11 6 4 2 5 5 3 3 1 6 2 6 5 4 3 6 4 6 5 3 12 2 3 9 5 8 11 15 18 13
77 72 66 61 55 49 42 37 31 26 22 18 16 13 10 7 7 7 3 5 10 9 9 13 14 11 5 2 2 4 4 3 0 2 6 4 4 6 7 7 4 6 5 4 4 6 10 7 17 20 19 16 9 8
75 70 65 60 55 49 43 37 31 26 21 17 15 12 10 8 8 10 12 12 9 6 4 10 13 10 6 5 1 3 5 3 3 2 2 3 3 9 5 2 5 3 9 3 7 12 11 8 6 4 6 11 9 11
72 67 62 58 54 49 43 37 31 26 20 17 15 12 9 7 7 8 7 16 12 5 2 3 15 11 9 6 6 4 5 6 5 2 2 2 5 8 3 3 5 10 5 4 5 7 1 6 7 9 9 5 10 13
67 65 60 56 52 47 41 36 30 25 20 16 14 12 9 6 5 7 3 5 16 4 1 4 7 11 10 10 13 13 9 7 6 3 1 2 4 2 6 6 9 5 13 13 6 24 5 10 14 13 10 12 13 14
64 62 57 55 50 45 39 34 29 24 19 15 13 11 10 7 5 5 5 4 14 5 3 1 2 6 6 5 5 5 7 5 5 3 2 1 3 0 2 5 13 6 6 12 12 4 5 3 8 10 13 19 25 22
62 60 56 51 47 43 37 31 26 22 18 15 13 11 10 8 9 5 1 8 12 4 3 1 2 3 4 2 4 1 3 4 3 2 1 2 5 1 6 13 8 19 32 34 28 16 11 13 14 19 27 31 25 15
60 57 54 50 46 40 35 29 23 19 16 14 14 12 10 8 6 5 4 6 6 3 2 1 4 4 5 3 3 1 1 2 3 1 2 3 3 7 13 16 27 28 22 18 17 11 27 31 27 28 30 22 14 12
55 47 50 51 45 40 34 27 21 15 14 14 18 8 8 8 6 4 3 2 2 2 3 2 2 1 5 4 5 1 4 2 2 4 3 4 6 28 24 22 28 15 15 17 12 17 21 34 19 18 12 10 15 23
49 44 42 48 43 38 33 26 19 14 14 16 9 5 10 12 6 2 0 3 4 2 2 2 2 2 7 2 3 5 2 2 1 4 4 2 5 8 15 14 11 20 19 15 12 13 14 9 1 5 16 27 29 27
55 46 40 41 37 33 28 24 19 16 14 14 11 14 12 5 4 3 2 3 2 0 3 2 1 3 2 2 0 3 1 1 1 6 3 3 4 18 17 7 2 20 20 20 22 12 6 3 11 20 32 31 31 32
57 53 45 41 35 30 25 25 24 21 19 20 6 6 4 2 7 7 8 3 2 1 8 2 2 4 4 1 5 0 1 1 2 1 2 3 17 18 19 16 19 21 18 15 15 11 10 19 27 32 34 34 35 35
39 46 43 37 33 31 28 26 26 27 19 6 5 2 1 4 3 3 3 2 2 2 11 2 1 1 1 3 1 2 2 3 1 2 2 7 23 20 8 7 9 9 6 8 8 16 23 29 34 33 33 35 34 33
22 25 33 34 32 30 27 23 24 24 6 5 3 5 4 3 4 5 2 4 8 12 6 2 2 2 3 4 3 2 2 2 3 2 4 22 30 21 1 6 2 2 7 8 8 22 31 38 40 40 35 31 25 27
26 23 22 23 26 24 22 19 15 12 5 4 3 5 5 5 5 6 6 4 12 9 2 1 1 2 3 2 3 3 4 3 4 5 18 30 27 22 9 5 1 6 6 5 13 27 39 46 43 37 34 28 26 22
26 28 26 20 23 24 20 21 11 4 3 4 3 7 7 7 8 7 8 12 12 3 1 0 4 3 5 3 2 4 3 2 9 18 25 27 23 16 10 4 3 5 8 11 22 37 47 43 31 33 33 31 25 19
22 29 30 26 22 23 18 7 6 5 4 4 3 3 7 8 8 8 7 15 12 8 3 3 1 4 4 7 4 3 2 9 17 25 30 29 19 6 1 0 2 6 11 17 30 43 45 35 32 32 31 31 24 15
24 34 36 33 34 19 9 8 4 1 2 1 3 3 3 5 6 3 3 11 14 9 4 2 4 5 4 6 5 4 3 8 13 22 25 25 15 2 2 2 3 4 9 18 34 43 39 23 22 29 30 26 19 12
31 35 36 28 27 8 8 5 10 4 1 1 2 4 5 4 5 2 7 10 12 7 3 4 4 4 2 1 5 2 6 10 14 15 14 16 11 5 6 3 2 5 12 22 32 34 29 23 24 28 28 23 18 14
30 32 32 24 8 12 9 5 3 1 1 1 1 2 3 5 5 6 6 8 3 4 4 4 2 3 5 5 3 3 4 4 7 13 16 18 14 4 5 8 11 15 22 28 29 33 31 27 25 30 32 29 24 21
34 30 23 21 6 6 7 5 3 1 3 3 3 3 1 2 4 7 6 12 9 12 14 10 8 4 6 10 12 9 3 5 7 7 10 12 15 14 14 16 19 20 25 29 26 24 23 26 33 36 36 33 30 28
33 29 16 6 4 5 3 4 2 1 2 2 2 3 5 6 6 5 8 11 12 24 28 30 32 36 37 33 27 20 16 13 11 10 9 10 13 15 19 20 21 22 26 30 32 32 35 38 39 44 45 43 39 36
26 8 3 4 4 4 3 1 4 4 3 3 3 3 5 6 6 7 7 7 22 27 28 29 32 39 43 46 49 48 37 30 28 24 23 23 23 23 23 24 23 26 29 34 37 42 43 47 46 50 54 53 50 43
5 5 4 3 4 4 4 5 6 6 6 6 4 5 4 4 4 6 7 10 23 34 37 37 37 39 38 37 39 53 55 51 46 42 38 36 37 39 39 37 35 32 30 30 32 35 41 53 53 50 57 60 58 54
3 3 4 11 8 8 10 7 12 13 8 9 10 7 7 9 8 10 5 8 14 27 33 32 38 39 41 47 50 49 44 49 63 65 54 47 47 46 44 42 40 39 38 36 34 35 38 41 48 54 58 63 68 60
4 9 10 14 8 7 7 12 9 8 11 12 8 11 7 8 9 8 19 30 42 36 31 30 34 33 35 33 35 40 43 47 51 55 57 61 57 57 51 44 42 39 37 36 36 36 37 36 38 42 49 56 67 67
13 8 12 12 15 19 10 7 7 10 11 11 8 13 8 10 8 9 14 20 19 17 14 11 7 12 19 22 19 26 35 35 39 44 47 46 42 34 27 25 23 24 26 29 31 29 29 32 38 43 47 49 56 68
11 13 20 12 15 11 19 15 11 12 17 26 17 15 20 30 33 32 30 28 24 18 17 15 17 20 21 21 20 19 17 14 11 14 17 20 21 22 21 27 32 35 36 38 39 40 41 42 44 45 48 51 60 66
12 24 13 10 10 12 17 31 20 30 35 35 32 31 34 38 39 36 35 35 35 33 32 34 34 32 31 30 27 25 25 27 28 27 27 28 28 30 34 35 35 38 40 42 44 43 41 40 38 38 41 44 53 59
8 21 11 12 10 17 27 23 24 27 31 35 38 42 49 45 59 63 62 61 60 59 59 59 58 55 51 48 46 46 47 45 44 41 39 37 37 37 35 35 36 38 39 38 34 31 32 31 33 35 37 47 47 41
15 21 14 10 11 20 23 26 24 26 30 35 33 39 36 24 25 41 45 36 42 50 52 55 60 64 60 63 62 61 58 53 48 45 43 42 39 37 38 38 38 38 37 31 23 20 21 24 31 38 41 41 39 34
12 15 13 7 6 7 9 10 8 8 10 9 11 20 21 17 15 17 15 15 15 22 29 33 35 34 32 35 39 44 48 55 57 50 44 40 40 38 34 31 30 30 27 21 18 18 21 32 41 38 34 31 28 27
Wind_Direction_500mb
183 180 179 177 177 177 176 174 174 173 171 170 169 160 144 141 162 175 193 231 212 222 220 206 189 179 163 96 315 338 271 196 26 95 150 164 182 169 207 241 226 203 167 171 125 192 273 141 162 242 117 117 342 264
179 177 176 175 175 175 173 172 172 170 167 169 170 164 154 144 139 147 173 267 231 216 226 210 205 226 252 6 352 332 290 282 355 100 162 126 149 164 205 229 173 225 244 260 203 205 237 195 213 293 266 253 261 257
176 175 174 174 173 173 172 171 171 169 166 167 169 164 160 150 130 136 22 330 200 215 248 220 225 209 214 219 4 330 316 278 6 170 144 119 154 169 181 231 258 218 194 252 234 169 245 264 264 271 261 249 254 277
173 173 173 172 173 172 171 170 169 168 166 166 167 168 165 147 133 121 59 49 166 170 199 205 212 215 224 233 248 333 330 194 115 85 161 137 171 203 182 54 250 16 159 232 270 262 291 265 267 277 206 186 248 281
171 172 172 172 172 172 171 170 170 168 167 167 168 170 171 161 138 136 92 44 43 175 213 219 195 200 219 266 264 273 290 271 225 235 217 172 124 163 138 192 231 191 186 227 2 341 350 116 89 101 120 53 352 331
170 171 172 171 171 172 172 171 171 170 170 170 172 173 175 177 147 144 158 3 13 32 190 183 189 174 205 258 264 275 266 239 230 221 218 191 218 258 188 204 167 196 232 252 270 340 327 109 96 83 63 32 13 360
170 172 170 172 172 173 175 174 174 175 176 174 177 181 175 179 154 137 132 4 7 42 44 264 175 183 220 232 204 251 268 243 224 242 223 165 143 225 246 238 177 206 125 118 127 74 310 33 52 35 22 6 355 339
168 170 171 173 174 175 177 176 178 180 181 179 180 179 169 167 147 141 50 358 5 34 52 57 250 165 27 141 171 333 210 214 217 227 175 189 148 150 253 235 192 131 105 98 122 81 27 8 343 353 354 350 346 350
170 171 172 174 174 176 177 176 180 185 180 176 173 163 156 166 153 206 286 324 338 54 78 207 207 160 357 61 101 74 352 219 291 196 93 195 174 226 235 231 192 171 161 131 118 79 19 335 322 338 345 347 4 54
178 174 178 178 176 177 178 178 182 181 174 166 159 153 168 153 150 162 269 320 333 268 221 237 174 355 7 36 68 58 37 53 196 55 324 239 252 252 267 278 231 277 238 168 195 135 211 270 306 345 1 57 91 100
170 172 178 175 176 176 177 178 178 177 165 153 150 150 142 140 137 160 129 25 330 183 360 13 208 326 26 357 66 39 73 355 322 77 302 236 266 310 326 319 283 213 183 166 193 243 238 245 349 96 107 112 111 107
176 182 176 171 175 175 179 182 182 178 166 161 141 126 126 128 96 89 20 319 255 111 355 311 308 215 270 34 27 32 77 269 269 338 267 270 293 334 336 335 160 180 211 220 208 195 163 106 148 139 130 126 121 112
151 161 167 160 165 169 173 174 173 172 155 145 139 163 116 65 71 185 181 198 220 353 8 360 157 196 196 118 82 196 176 253 306 343 286 272 335 19 42 78 106 124 137 161 173 183 167 162 158 149 140 133 126 120
131 151 154 153 153 159 160 160 164 159 152 133 169 67 169 166 202 155 112 71 3 326 339 2 169 103 104 136 28 207 60 275 360 288 301 6 344 351 23 68 110 126 151 152 167 177 168 165 153 142 138 133 133 127
141 144 143 156 155 155 155 153 159 159 117 140 159 161 145 113 125 109 58 93 14 345 353 107 116 153 68 118 21 85 141 239 244 64 335 344 358 356 309 17 59 110 104 102 149 175 169 160 152 144 141 141 143 135
161 162 155 154 159 152 148 146 149 147 74 96 92 126 119 128 118 100 87 79 354 355 13 103 123 145 85 68 161 193 154 226 59 282 321 342 357 16 15 354 176 179 166 144 163 173 166 159 152 150 148 151 148 142
152 164 156 153 160 155 134 134 120 123 106 90 75 128 107 105 110 99 101 24 356 14 50 314 177 102 117 105 207 201 210 53 312 337 353 347 335 350 358 8 118 162 181 188 181 176 167 156 158 162 165 162 158 149
136 142 147 144 151 199 208 132 65 61 83 83 90 111 167 135 122 111 74 28 31 20 19 70 101 220 201 179 193 189 244 7 16 7 359 351 329 297 294 328 154 169 191 193 186 173 166 164 174 179 181 172 169 164
133 143 147 148 143 120 112 132 153 101 285 87 127 167 150 168 170 166 77 8 360 353 317 209 231 218 208 215 153 138 29 9 2 5 358 358 359 18 146 168 148 170 182 186 186 184 177 183 198 191 185 180 181 189
140 147 150 145 145 105 93 76 141 161 77 219 128 137 131 137 150 209 305 333 345 324 231 224 266 319 329 39 171 99 27 0 346 340 358 346 351 19 51 68 105 183 181 183 189 190 190 196 205 204 202 203 209 220
142 148 154 163 120 77 84 116 71 88 209 294 12 88 148 195 199 220 281 305 287 247 252 257 242 106 111 113 114 181 235 282 346 342 308 318 330 248 220 214 215 212 199 195 203 209 217 233 230 217 214 219 224 231
136 130 133 135 125 85 87 116 130 214 300 290 288 182 202 210 218 218 209 210 226 227 229 252 242 301 336 351 357 355 304 250 268 304 334 309 291 293 267 265 264 250 238 230 233 239 248 251 239 233 231 233 237 244
134 125 112 101 111 139 113 173 164 213 283 316 278 243 217 210 222 214 241 224 232 243 247 253 260 268 276 283 291 305 316 299 292 274 272 284 297 286 283 281 281 273 267 259 255 255 253 253 247 242 240 238 238 242
129 116 107 108 81 103 128 156 227 236 219 224 208 236 224 224 208 225 248 241 248 249 249 255 261 265 267 267 268 266 269 280 284 279 272 271 273 279 286 285 286 280 271 268 268 268 266 262 255 247 244 242 243 243
129 125 141 114 147 141 154 197 204 221 233 201 234 261 233 214 238 245 233 249 253 255 261 269 261 258 258 264 267 262 256 257 259 267 266 269 268 268 270 273 275 276 280 280 281 283 276 269 266 258 248 245 244 244
97 157 187 181 171 209 200 204 198 203 203 205 227 223 212 231 241 253 246 226 251 288 282 281 283 274 268 271 266 262 269 266 256 257 255 259 264 268 268 270 272 272 271 277 274 276 276 275 271 263 255 248 240 240
209 197 208 217 214 201 239 248 248 223 195 210 193 183 199 220 231 246 261 264 265 284 291 282 283 291 296 294 277 262 264 262 257 258 257 254 259 264 264 265 267 268 267 268 270 273 275 275 273 269 262 253 243 238
227 216 203 195 215 216 231 255 225 218 225 215 187 200 213 209 217 239 294 313 308 297 290 268 285 337 348 354 324 277 266 261 260 257 255 253 254 252 244 246 251 260 268 272 274 271 272 277 279 275 268 263 247 234
218 214 195 235 229 196 210 216 233 229 215 213 220 228 248 254 263 276 283 282 281 281 274 272 280 291 300 306 317 325 315 306 281 252 238 239 250 254 266 274 280 280 277 273 269 272 276 274 270 270 272 264 246 228
237 200 208 221 204 215 223 202 228 233 249 247 245 250 259 263 266 267 269 275 275 274 273 272 273 276 280 285 285 283 282 286 282 272 267 269 276 278 281 285 288 286 284 280 277 274 273 277 277 268 255 244 227 216
228 192 219 233 248 244 252 256 265 276 271 266 265 266 271 280 281 279 277 274 271 269 268 266 267 268 270 270 269 270 270 269 274 276 273 272 274 274 273 277 283 286 287 285 277 271 272 276 269 251 230 215 212 223
211 208 213 225 243 252 258 265 264 257 259 259 260 263 263 265 272 287 297 287 276 270 268 267 265 266 268 269 268 266 266 266 265 265 264 265 268 267 265 272 274 278 280 274 270 272 271 261 244 218 214 234 235 228
230 234 231 261 259 253 247 214 242 262 241 245 252 250 245 232 243 267 314 347 326 300 287 281 279 277 272 267 268 271 269 264 252 252 252 256 263 261 261 265 267 269 264 264 265 273 287 264 251 247 231 219 213 211
Wind_Speed_850mb
76 71 65 60 54 48 42 36 30 26 21 18 15 11 8 7 8 10 9 5 9 8 8 10 5 4 3 2 2 7 5 0 2 5 5 6 5 6 4 2 5 8 10 6 5 4 9 3 7 5 4 10 7 18
77 72 66 61 55 48 42 36 31 26 22 18 16 12 9 7 7 8 4 6 12 14 8 16 11 6 4 2 5 5 3 3 1 6 2 6 5 4 3 6 4 6 5 3 12 2 3 9 5 8 11 15 18 13
77 72 66 61 55 49 42 37 31 26 22 18 16 13 10 7 7 7 3 5 10 9 9 13 14 11 5 2 2 4 4 3 0 2 6 4 4 6 7 7 4 6 5 4 4 6 10 7 17 20 19 16 9 8
75 70 65 60 55 49 43 37 31 26 21 17 15 12 10 8 8 10 12 12 9 6 4 10 13 10 6 5 1 3 5 3 3 2 2 3 3 9 5 2 5 3 9 3 7 12 11 8 6 4 6 11 9 11
72 67 62 58 54 49 43 37 31 26 20 17 15 12 9 7 7 8 7 16 12 5 2 3 15 11 9 6 6 4 5 6 5 2 2 2 5 8 3 3 5 10 5 4 5 7 1 6 7 9 9 5 10 13
67 65 60 56 52 47 41 36 30 25 20 16 14 12 9 6 5 7 3 5 16 4 1 4 7 11 10 10 13 13 9 7 6 3 1 2 4 2 6 6 9 5 13 13 6 24 5 10 14 13 10 12 13 14
64 62 57 55 50 45 39 34 29 24 19 15 13 11 10 7 5 5 5 4 14 5 3 1 2 6 6 5 5 5 7 5 5 3 2 1 3 0 2 5 13 6 6 12 12 4 5 3 8 10 13 19 25 22
62 60 56 51 47 43 37 31 26 22 18 15 13 11 10 8 9 5 1 8 12 4 3 1 2 3 4 2 4 1 3 4 3 2 1 2 5 1 6 13 8 19 32 34 28 16 11 13 14 19 27 31 25 15
60 57 54 50 46 40 35 29 23 19 16 14 14 12 10 8 6 5 4 6 6 3 2 1 4 4 5 3 3 1 1 2 3 1 2 3 3 7 13 16 27 28 22 18 17 11 27 31 27 28 30 22 14 12
55 47 50 51 45 40 34 27 21 15 14 14 18 8 8 8 6 4 3 2 2 2 3 2 2 1 5 4 5 1 4 2 2 4 3 4 6 28 24 22 28 15 15 17 12 17 21 34 19 18 12 10 15 23
49 44 42 48 43 38 33 26 19 14 14 16 9 5 10 12 6 2 0 3 4 2 2 2 2 2 7 2 3 5 2 2 1 4 4 2 5 8 15 14 11 20 19 15 12 13 14 9 1 5 16 27 29 27
55 46 40 41 37 33 28 24 19 16 14 14 11 14 12 5 4 3 2 3 2 0 3 2 1 3 2 2 0 3 1 1 1 6 3 3 4 18 17 7 2 20 20 20 22 12 6 3 11 20 32 31 31 32
57 53 45 41 35 30 25 25 24 21 19 20 6 6 4 2 7 7 8 3 2 1 8 2 2 4 4 1 5 0 1 1 2 1 2 3 17 18 19 16 19 21 18 15 15 11 10 19 27 32 34 34 35 35
39 46 43 37 33 31 28 26 26 27 19 6 5 2 1 4 3 3 3 2 2 2 11 2 1 1 1 3 1 2 2 3 1 2 2 7 23 20 8 7 9 9 6 8 8 16 23 29 34 33 33 35 34 33
22 25 33 34 32 30 27 23 24 24 6 5 3 5 4 3 4 5 2 4 8 12 6 2 2 2 3 4 3 2 2 2 3 2 4 22 30 21 1 6 2 2 7 8 8 22 31 38 40 40 35 31 25 27
26 23 22 23 26 24 22 19 15 12 5 4 3 5 5 5 5 6 6 4 12 9 2 1 1 2 3 2 3 3 4 3 4 5 18 30 27 22 9 5 1 6 6 5 13 27 39 46 43 37 34 28 26 22
26 28 26 20 23 24 20 21 11 4 3 4 3 7 7 7 8 7 8 12 12 3 1 0 4 3 5 3 2 4 3 2 9 18 25 27 23 16 10 4 3 5 8 11 22 37 47 43 31 33 33 31 25 19
22 29 30 26 22 23 18 7 6 5 4 4 3 3 7 8 8 8 7 15 12 8 3 3 1 4 4 7 4 3 2 9 17 25 30 29 19 6 1 0 2 6 11 17 30 43 45 35 32 32 31 31 24 15
24 34 36 33 34 19 9 8 4 1 2 1 3 3 3 5 6 3 3 11 14 9 4 2 4 5 4 6 5 4 3 8 13 22 25 25 15 2 2 2 3 4 9 18 34 43 39 23 22 29 30 26 19 12
31 35 36 28 27 8 8 5 10 4 1 1 2 4 5 4 5 2 7 10 12 7 3 4 4 4 2 1 5 2 6 10 14 15 14 16 11 5 6 3 2 5 12 22 32 34 29 23 24 28 28 23 18 14
30 32 32 24 8 12 9 5 3 1 1 1 1 2 3 5 5 6 6 8 3 4 4 4 2 3 5 5 3 3 4 4 7 13 16 18 14 4 5 8 11 15 22 28 29 33 31 27 25 30 32 29 24 21
34 30 23 21 6 6 7 5 3 1 3 3 3 3 1 2 4 7 6 12 9 12 14 10 8 4 6 10 12 9 3 5 7 7 10 12 15 14 14 16 19 20 25 29 26 24 23 26 33 36 36 33 30 28
33 29 16 6 4 5 3 4 2 1 2 2 2 3 5 6 6 5 8 11 12 24 28 30 32 36 37 33 27 20 16 13 11 10 9 10 13 15 19 20 21 22 26 30 32 32 35 38 39 44 45 43 39 36
26 8 3 4 4 4 3 1 4 4 3 3 3 3 5 6 6 7 7 7 22 27 28 29 32 39 43 46 49 48 37 30 28 24 23 23 23 23 23 24 23 26 29 34 37 42 43 47 46 50 54 53 50 43
5 5 4 3 4 4 4 5 6 6 6 6 4 5 4 4 4 6 7 10 23 34 37 37 37 39 38 37 39 53 55 51 46 42 38 36 37 39 39 37 35 32 30 30 32 35 41 53 53 50 57 60 58 54
3 3 4 11 8 8 10 7 12 13 8 9 10 7 7 9 8 10 5 8 14 27 33 32 38 39 41 47 50 49 44 49 63 65 54 47 47 46 44 42 40 39 38 36 34 35 38 41 48 54 58 63 68 60
4 9 10 14 8 7 7 12 9 8 11 12 8 11 7 8 9 8 19 30 42 36 31 30 34 33 35 33 35 40 43 47 51 55 57 61 57 57 51 44 42 39 37 36 36 36 37 36 38 42 49 56 67 67
13 8 12 12 15 19 10 7 7 10 11 11 8 13 8 10 8 9 14 20 19 17 14 11 7 12 19 22 19 26 35 35 39 44 47 46 42 34 27 25 23 24 26 29 31 29 29 32 38 43 47 49 56 68
11 13 20 12 15 11 19 15 11 12 17 26 17 15 20 30 33 32 30 28 24 18 17 15 17 20 21 21 20 19 17 14 11 14 17 20 21 22 21 27 32 35 36 38 39 40 41 42 44 45 48 51 60 66
12 24 13 10 10 12 17 31 20 30 35 35 32 31 34 38 39 36 35 35 35 33 32 34 34 32 31 30 27 25 25 27 28 27 27 28 28 30 34 35 35 38 40 42 44 43 41 40 38 38 41 44 53 59
8 21 11 12 10 17 27 23 24 27 31 35 38 42 49 45 59 63 62 61 60 59 59 59 58 55 51 48 46 46 47 45 44 41 39 37 37 37 35 35 36 38 39 38 34 31 32 31 33 35 37 47 47 41
15 21 14 10 11 20 23 26 24 26 30 35 33 39 36 24 25 41 45 36 42 50 52 55 60 64 60 63 62 61 58 53 48 45 43 42 39 37 38 38 38 38 37 31 23 20 21 24 31 38 41 41 39 34
12 15 13 7 6 7 9 10 8 8 10 9 11 20 21 17 15 17 15 15 15 22 29 33 35 34 32 35 39 44 48 55 57 50 44 40 40 38 34 31 30 30 27 21 18 18 21 32 41 38 34 31 28 27
Wind_Direction_850mb
183 180 179 177 177 177 176 174 174 173 171 170 169 160 144 141 162 175 193 231 212 222 220 206 189 179 163 96 315 338 271 196 26 95 150 164 182 169 207 241 226 203 167 171 125 192 273 141 162 242 117 117 342 264
179 177 176 175 175 175 173 172 172 170 167 169 170 164 154 144 139 147 173 267 231 216 226 210 205 226 252 6 352 332 290 282 355 100 162 126 149 164 205 229 173 225 244 260 203 205 237 195 213 293 266 253 261 257
176 175 174 174 173 173 172 171 171 169 166 167 169 164 160 150 130 136 22 330 200 215 248 220 225 209 214 219 4 330 316 278 6 170 144 119 154 169 181 231 258 218 194 252 234 169 245 264 264 271 261 249 254 277
173 173 173 172 173 172 171 170 169 168 166 166 167 168 165 147 133 121 59 49 166 170 199 205 212 215 224 233 248 333 330 194 115 85 161 137 171 203 182 54 250 16 159 232 270 262 291 265 267 277 206 186 248 281
171 172 172 172 172 172 171 170 170 168 167 167 168 170 171 161 138 136 92 44 43 175 213 219 195 200 219 266 264 273 290 271 225 235 217 172 124 163 138 192 231 191 186 227 2 341 350 116 89 101 120 53 352 331
170 171 172 171 171 172 172 171 171 170 170 170 172 173 175 177 147 144 158 3 13 32 190 183 189 174 205 258 264 275 266 239 230 221 218 191 218 258 188 204 167 196 232 252 270 340 327 109 96 83 63 32 13 360
170 172 170 172 172 173 175 174 174 175 176 174 177 181 175 179 154 137 132 4 7 42 44 264 175 183 220 232 204 251 268 243 224 242 223 165 143 225 246 238 177 206 125 118 127 74 310 33 52 35 22 6 355 339
168 170 171 173 174 175 177 176 178 180 181 179 180 179 169 167 147 141 50 358 5 34 52 57 250 165 27 141 171 333 210 214 217 227 175 189 148 150 253 235 192 131 105 98 122 81 27 8 343 353 354 350 346 350
170 171 172 174 174 176 177 176 180 185 180 176 173 163 156 166 153 206 286 324 338 54 78 207 207 160 357 61 101 74 352 219 291 196 93 195 174 226 235 231 192 171 161 131 118 79 19 335 322 338 345 347 4 54
178 174 178 178 176 177 178 178 182 181 174 166 159 153 168 153 150 162 269 320 333 268 221 237 174 355 7 36 68 58 37 53 196 55 324 239 252 252 267 278 231 277 238 168 195 135 211 270 306 345 1 57 91 100
170 172 178 175 176 176 177 178 178 177 165 153 150 150 142 140 137 160 129 25 330 183 360 13 208 326 26 357 66 39 73 355 322 77 302 236 266 310 326 319 283 213 183 166 193 243 238 245 349 96 107 112 111 107
176 182 176 171 175 175 179 182 182 178 166 161 141 126 126 128 96 89 20 319 255 111 355 311 308 215 270 34 27 32 77 269 269 338 267 270 293 334 336 335 160 180 211 220 208 195 163 106 148 139 130 126 121 112
151 161 167 160 165 169 173 174 173 172 155 145 139 163 116 65 71 185 181 198 220 353 8 360 157 196 196 118 82 196 176 253 306 343 286 272 335 19 42 78 106 124 137 161 173 183 167 162 158 149 140 133 126 120
131 151 154 153 153 159 160 160 164 159 152 133 169 67 169 166 202 155 112 71 3 326 339 2 169 103 104 136 28 207 60 275 360 288 301 6 344 351 23 68 110 126 151 152 167 177 168 165 153 142 138 133 133 127
141 144 143 156 155 155 155 153 159 159 117 140 159 161 145 113 125 109 58 93 14 345 353 107 116 153 68 118 21 85 141 239 244 64 335 344 358 356 309 17 59 110 104 102 149 175 169 160 152 144 141 141 143 135
161 162 155 154 159 152 148 146 149 147 74 96 92 126 119 128 118 100 87 79 354 355 13 103 123 145 85 68 161 193 154 226 59 282 321 342 357 16 15 354 176 179 166 144 163 173 166 159 152 150 148 151 148 142
152 164 156 153 160 155 134 134 120 123 106 90 75 128 107 105 110 99 101 24 356 14 50 314 177 102 117 105 207 201 210 53 312 337 353 347 335 350 358 8 118 162 181 188 181 176 167 156 158 162 165 162 158 149
136 142 147 144 151 199 208 132 65 61 83 83 90 111 167 135 122 111 74 28 31 20 19 70 101 220 201 179 193 189 244 7 16 7 359 351 329 297 294 328 154 169 191 193 186 173 166 164 174 179 181 172 169 164
133 143 147 148 143 120 112 132 153 101 285 87 127 167 150 168 170 166 77 8 360 353 317 209 231 218 208 215 153 138 29 9 2 5 358 358 359 18 146 168 148 170 182 186 186 184 177 183 198 191 185 180 181 189
140 147 150 145 145 105 93 76 141 161 77 219 128 137 131 137 150 209 305 333 345 324 231 224 266 319 329 39 171 99 27 0 346 340 358 346 351 19 51 68 105 183 181 183 189 190 190 196 205 204 202 203 209 220
142 148 154 163 120 77 84 116 71 88 209 294 12 88 148 195 199 220 281 305 287 247 252 257 242 106 111 113 114 181 235 282 346 342 308 318 330 248 220 214 215 212 199 195 203 209 217 233 230 217 214 219 224 231
136 130 133 135 125 85 87 116 130 214 300 290 288 182 202 210 218 218 209 210 226 227 229 252 242 301 336 351 357 355 304 250 268 304 334 309 291 293 267 265 264 250 238 230 233 239 248 251 239 233 231 233 237 244
134 125 112 101 111 139 113 173 164 213 283 316 278 243 217 210 222 214 241 224 232 243 247 253 260 268 276 283 291 305 316 299 292 274 272 284 297 286 283 281 281 273 267 259 255 255 253 253 247 242 240 238 238 242
129 116 107 108 81 103 128 156 227 236 219 224 208 236 224 224 208 225 248 241 248 249 249 255 261 265 267 267 268 266 269 280 284 279 272 271 273 279 286 285 286 280 271 268 268 268 266 262 255 247 244 242 243 243
129 125 141 114 147 141 154 197 204 221 233 201 234 261 233 214 238 245 233 249 253 255 261 269 261 258 258 264 267 262 256 257 259 267 266 269 268 268 270 273 275 276 280 280 281 283 276 269 266 258 248 245 244 244
97 157 187 181 171 209 200 204 198 203 203 205 227 223 212 231 241 253 246 226 251 288 282 281 283 274 268 271 266 262 269 266 256 257 255 259 264 268 268 270 272 272 271 277 274 276 276 275 271 263 255 248 240 240
209 197 208 217 214 201 239 248 248 223 195 210 193 183 199 220 231 246 261 264 265 284 291 282 283 291 296 294 277 262 264 262 257 258 257 254 259 264 264 265 267 268 267 268 270 273 275 275 273 269 262 253 243 238
227 216 203 195 215 216 231 255 225 218 225 215 187 200 213 209 217 239 294 313 308 297 290 268 285 337 348 354 324 277 266 261 260 257 255 253 254 252 244 246 251 260 268 272 274 271 272 277 279 275 268 263 247 234
218 214 195 235 229 196 210 216 233 229 215 213 220 228 248 254 263 276 283 282 281 281 274 272 280 291 300 306 317 325 315 306 281 252 238 239 250 254 266 274 280 280 277 273 269 272 276 274 270 270 272 264 246 228
237 200 208 221 204 215 223 202 228 233 249 247 245 250 259 263 266 267 269 275 275 274 273 272 273 276 280 285 285 283 282 286 282 272 267 269 276 278 281 285 288 286 284 280 277 274 273 277 277 268 255 244 227 216
228 192 219 233 248 244 252 256 265 276 271 266 265 266 271 280 281 279 277 274 271 269 268 266 267 268 270 270 269 270 270 269 274 276 273 272 274 274 273 277 283 286 287 285 277 271 272 276 269 251 230 215 212 223
211 208 213 225 243 252 258 265 264 257 259 259 260 263 263 265 272 287 297 287 276 270 268 267 265 266 268 269 268 266 266 266 265 265 264 265 268 267 265 272 274 278 280 274 270 272 271 261 244 218 214 234 235 228
230 234 231 261 259 253 247 214 242 262 241 245 252 250 245 232 243 267 314 347 326 300 287 281 279 277 272 267 268 271 269 264 252 252 252 256 263 261 261 265 267 269 264 264 265 273 287 264 251 247 231 219 213 211